This demonstration page uses our WeatherBlox Daily Observations layout. Learn more.

Left ArrowRight Arrow

Hourly Observations for May 30, 2021

Temp ( °F °C ) Dew Point ( °F °C ) Humidity (%) Winds ( mph kmh ) Pressure ( in mb ) Visibility ( mi km ) Precip ( " mm )
12:53 am 00:53 Mostly Cloudy 47 8.3 38 3.3 71 71 S 3 6 30.14 1021 10 16 0.00 0.00
1:53 am 01:53 Clear 44 6.7 35 1.7 71 71 SSW 8 13 30.15 1021 10 16 0.00 0.00
2:53 am 02:53 Clear 43 6.1 35 1.7 74 74 SSW 6 9 30.15 1021 10 16 0.00 0.00
3:53 am 03:53 Mostly Clear 39 3.9 34 1.1 82 82 W 5 7 30.16 1021 10 16 0.00 0.00
4:53 am 04:53 Clear 40 4.4 34 1.1 79 79 NNW 5 7 30.16 1021 10 16 0.00 0.00
5:53 am 05:53 Sunny 41 5 34 1.1 76 76 Calm 30.17 1022 10 16 0.00 0.00
6:53 am 06:53 Sunny 44 6.7 36 2.2 73 73 Calm 30.18 1022 10 16 0.00 0.00
7:53 am 07:53 Sunny 49 9.4 38 3.3 66 66 Calm 30.18 1022 10 16 0.00 0.00
8:53 am 08:53 Sunny 58 14.4 39 3.9 50 50 WSW 8 13 30.17 1022 10 16 0.00 0.00
9:53 am 09:53 Sunny 64 17.8 39 3.9 40 40 SW 7 11 30.17 1022 10 16 0.00 0.00
10:53 am 10:53 Sunny 66 18.9 33 0.6 29 29 VRB 3 6 30.16 1022 10 16 0.00 0.00
11:53 am 11:53 Sunny 71 21.7 32 0 24 24 ESE 7 11 30.15 1021 10 16 0.00 0.00
12:53 pm 12:53 Sunny 71 21.7 29 -1.7 21 21 Calm 30.15 1021 10 16 0.00 0.00
1:53 pm 13:53 Sunny 73 22.8 31 -0.6 21 21 Calm 30.13 1020 10 16 0.00 0.00
2:53 pm 14:53 Sunny 73 22.8 33 0.6 23 23 SE 9 15 30.13 1020 10 16 0.00 0.00
3:53 pm 15:53 Mostly Sunny 71 21.7 32 0 24 24 VRB 7 11 30.12 1020 10 16 0.00 0.00
4:53 pm 16:53 Sunny 74 23.3 34 1.1 23 23 ENE 10 17 30.10 1019 10 16 0.00 0.00
5:53 pm 17:53 Sunny 73 22.8 32 0 22 22 Calm 30.10 1019 10 16 0.00 0.00
6:53 pm 18:53 Sunny 73 22.8 35 1.7 25 25 NE 8 13 30.08 1019 10 16 0.00 0.00
7:53 pm 19:53 Sunny 70 21.1 35 1.7 28 28 ENE 8 13 30.08 1019 10 16 0.00 0.00
8:53 pm 20:53 Sunny 63 17.2 38 3.3 40 40 ENE 7 11 30.07 1018 10 16 0.00 0.00
9:53 pm 21:53 Clear 60 15.6 38 3.3 44 44 ENE 8 13 30.07 1018 10 16 0.00 0.00
10:53 pm 22:53 Clear 55 12.8 39 3.9 55 55 Calm 30.08 1019 10 16 0.00 0.00
11:53 pm 23:53 Clear 55 12.8 37 2.8 51 51 E 5 7 30.06 1018 10 16 0.00 0.00

Powered by AerisWeather